Regional Weather Roundup
Issued by NWS

Home | Current Version | Previous Version | Text Only | Print | Product List | Glossary Off
Versions: 1 2 3 4 5 6 7 8 9 10 11 12 13 14 15 16 17 18 19 20 21 22 23 24 25 26 27 28 29 30 31 32 33 34 35 36 37 38 39 40 41 42 43 44 45 46 47 48 49 50

000
ASUS43 KDTX 250310
RWRMI
MICHIGAN HOURLY REGIONAL WEATHER ROUNDUP
NATIONAL WEATHER SERVICE DETROIT/PONTIAC MI
1100 PM EDT FRI OCT 24 2014

NOTE: "FAIR" INDICATES FEW OR NO CLOUDS BELOW 12,000 FEET WITH NO
SIGNIFICANT WEATHER AND/OR OBSTRUCTION TO VISIBILITY.

MIZ047>049-052>055-059>063-066>070-074>076-081>083-250400-
SOUTHEAST LOWER MICHIGAN

CITY           SKY/WX    TMP DP  RH WIND       PRES   REMARKS
ADRIAN         PTCLDY    45  43  93 SW3       29.99S FOG
ALMA           CLOUDY    41  40  97 CALM      29.94F VSB 1/2
ANN ARBOR      FOG       39  36  89 CALM      29.97F VSB 3/4
BAD AXE        CLOUDY    47  47  99 CALM      29.94F
CARO           MOCLDY    46  45  95 CALM      29.93F FOG
DETROIT CITY   CLOUDY    58  46  64 SW7       29.97S
DETROIT        MOCLDY    51  46  83 S5        29.98F
FLINT          MOCLDY    52  46  80 SW6       29.96S
GROSSE ILE     MOCLDY    54  46  76 CALM      29.97S
HILLSDALE      PTCLDY    50  49  98 SW5       29.98S
HOWELL         MOCLDY    50  46  85 S5        29.96F

CITY           SKY/WX    TMP DP  RH WIND       PRES   REMARKS
JACKSON        PTCLDY    45  43  93 SW5       29.97F
LAMBERTVILLE   PTCLDY    48  45  87 CALM      29.99S FOG
LANSING        PTCLDY    46  44  93 CALM      29.97F
LAPEER         FAIR      44  42  91 CALM      29.96S
MASON          PTCLDY    46  44  93 CALM      29.97S FOG
MONROE         MOCLDY    46  45  93 CALM      29.97S
MT. CLEMENS    CLOUDY    56  47  72 SW5       29.95S
PONTIAC        MOCLDY    52  45  77 SW3       29.96F
PORT HOPE        N/A     51  47  86 CALM      29.91F
PORT HURON     MOCLDY    52  46  82 CALM      29.96S
TRI CITIES     MOCLDY    50  46  86 SW8       29.95F
TROY           CLOUDY    56  45  66 SW6       29.99S
SAGINAW HB     MOCLDY    50  50 100 CALM      29.93F
$$
MIZ043>046-050>051-056>058-064>065-071>073-077>080-250400-
SOUTHWEST LOWER MICHIGAN

CITY           SKY/WX    TMP DP  RH WIND       PRES   REMARKS
BATTLE CREEK   CLEAR     45  41  86 CALM      29.97F
BENTON HARBOR  PTCLDY    47  46  97 SE3       29.95F FOG
BIG RAPIDS     CLOUDY    49  49 100 CALM      29.92F
COLDWATER      CLEAR     46  45  97 CALM      29.98S FOG
FREMONT        CLOUDY    48  47  97 CALM      29.94S FOG
HOLLAND        PTCLDY    48  45  89 CALM      29.95S FOG
GRAND RAPIDS   PTCLDY    45  44  97 S6        29.95F FOG
IONIA          FAIR      46  46  97 SW3       29.94F FOG
KALAMAZOO      FOG       45  43  93 CALM      29.97F VSB 1/2
LUDINGTON      MOCLDY    49  48  96 S5        29.92S FOG
MARSHALL       FOG       41  40  99 CALM      29.97S VSB 1
MOUNT PLEASANT FOG       45  44  96 CALM      29.93F VSB 1/2
MUSKEGON       FOG       46  44  93 CALM      29.94F VSB 1/4
SOUTH HAVEN    CLOUDY    53  50  90 CALM      29.95F
$$
MIZ016>042-250400-
NORTHERN LOWER MICHIGAN

CITY           SKY/WX    TMP DP  RH WIND       PRES   REMARKS
ALPENA         PTCLDY    41  40  96 CALM      29.88F
BEAVER ISLAND  CLOUDY    50  48  93 SW9       29.86S
BELLAIRE       PTCLDY    47  45  92 CALM      29.89S
CADILLAC       CLOUDY    48  47  97 SW9       29.90F
CHARLEVOIX     PTCLDY    49  48  95 S6        29.89F
FRANKFORT      PTCLDY    48  45  88 CALM      29.90S
GAYLORD        PTCLDY    46  44  93 SW5       29.89S
GRAYLING       PTCLDY    46  46  98 CALM      29.91S
HARBOR SPRINGS FAIR      50  47  88 SW7       29.87F
HOUGHTON LAKE  PTCLDY    47  46  97 SW5       29.91F
MANISTEE       PTCLDY    46  45  93 CALM      29.92S
OSCODA         PTCLDY    46  46  97 CALM      29.90S FOG
PELLSTON       PTCLDY    49  46  90 SW3       29.86F
TRAVERSE CITY  PTCLDY    49  45  86 CALM      29.88F
$$
MIZ007>008-015-250400-
EASTERN UPPER MICHIGAN

CITY           SKY/WX    TMP DP  RH WIND       PRES   REMARKS
KINROSS        CLOUDY    50  48  93 SW7       29.84F
MACKINAC ISLAN CLOUDY    51  47  87 SW8       29.85F
NEWBERRY       CLOUDY    47  46  97 SW13G24   29.81F FOG
S. S. MARIE    CLOUDY    50  45  83 S9        29.82F
MUNISING         N/A     52  48  86 S14G22    29.76F
$$
MIZ004>006-011>014-085-250400-
CENTRAL UPPER MICHIGAN

CITY           SKY/WX    TMP DP  RH WIND       PRES   REMARKS
MANISTIQUE     FOG       49  48  99 S13G20    29.82F VSB 1/2
ESCANABA       CLOUDY    50  46  87 SW9       29.81F
MENOMINEE      PTCLDY    52  46  82 SW9       29.83F
SAWYER-GWINN   MOCLDY    48  46  91 S12       29.77F
$$
MIZ001>003-009>011-084-250400-
WESTERN UPPER MICHIGAN

CITY           SKY/WX    TMP DP  RH WIND       PRES   REMARKS
IRON MOUNTAIN  CLOUDY    50  47  89 SE5       29.79F
HOUGHTON       MOCLDY    59  49  69 SW14G24   29.68F
COPPER HARBOR    N/A     57  45  64 W10       29.65F
IRONWOOD       CLEAR     55  52  88 SW15      29.74F
$$

ABBREVIATIONS USED IN REMARKS
   TC - TEMPERATURE IN CELSIUS
  WCI - WIND CHILL INDEX
   HX - HEAT INDEX
  VSB - VISIBILITY




USA.gov is the U.S. government's official web portal to all federal, state and local government web resources and services.